Terminal Aerodrome Forecast
Issued by NWS

Home | Current Version | Previous Version | Graphics & Text | Print | Product List | Glossary On
Versions: 1 2 3 4 5 6 7 8 9 10 11 12 13 14 15 16 17 18 19 20 21 22 23 24 25 26 27 28 29 30 31 32 33 34 35 36 37 38 39 40 41 42 43 44 45 46 47 48 49 50
000
FTUS43 KLOT 181458 AAA
TAFGYY
TAF AMD
KGYY 181458Z 1815/1912 04010KT P6SM SCT100 BKN250
     FM181900 05012G18KT P6SM BKN040 OVC060
      TEMPO 1821/1901 -SHRA BKN030
     FM190100 05010KT 6SM -SHRA BKN020 OVC040
     FM190500 05007KT 5SM -SHRA BR FEW004 SCT006 OVC010=

USA.gov is the U.S. government's official web portal to all federal, state and local government web resources and services.